Torna al catalogo

ATLAS 5 CENTAUR DEB

LostHEO
NORAD 49355·DEBRIS·🇺🇸 United States

Lanciato Oct 17, 2018 da Cape Canaveral Space Force Station

Loading…

Prossimi Passaggi (prossime 24 ore)

TLE

ObsoletoSource: Space-Track

Epoca: Jan 8, 2023, 20:49 UTC

1 49355U 18079FG  23008.86756955 -.00000040  00000-0  00000+0 0  9999
2 49355  10.3189 174.5999 4544966  53.7253 340.2425  1.72554161  8580

Traccia ATLAS 5 CENTAUR DEB in tempo reale con AllMySat

Download on the App Store